�������l�o���
Date,Time,MP-1(��Sv/h),MP-2(��Sv/h),MP-3(��Sv/h),MP-4(��Sv/h),MP-5(��Sv/h),MP-6(��Sv/h),MP-7(��Sv/h),MP-8(��Sv/h),����,����(m/s),���J
2022/07/15,00:00,0.570,0.799,0.516,0.967,0.681,0.334,0.573,0.545,��쓌,2.5,��
2022/07/15,00:10,0.569,0.798,0.515,0.968,0.682,0.334,0.572,0.544,��쓌,2.0,��
2022/07/15,00:20,0.569,0.799,0.516,0.967,0.684,0.333,0.573,0.544,��쓌,2.3,�L
2022/07/15,00:30,0.569,0.797,0.515,0.966,0.682,0.333,0.573,0.543,��쓌,2.6,�L
2022/07/15,00:40,0.568,0.798,0.514,0.967,0.682,0.334,0.572,0.544,��쓌,2.0,�L
2022/07/15,00:50,0.570,0.798,0.518,0.965,0.681,0.335,0.572,0.542,��,2.2,�L
2022/07/15,01:00,0.569,0.797,0.517,0.964,0.681,0.333,0.573,0.543,��쓌,2.8,�L
2022/07/15,01:10,0.568,0.795,0.517,0.964,0.682,0.333,0.572,0.543,��쓌,2.3,�L
2022/07/15,01:20,0.568,0.796,0.516,0.965,0.680,0.333,0.571,0.545,��쓌,2.3,�L
2022/07/15,01:30,0.569,0.795,0.517,0.963,0.678,0.334,0.572,0.543,�쓌,3.3,�L
2022/07/15,01:40,0.568,0.791,0.515,0.963,0.677,0.333,0.569,0.542,��쓌,1.7,�L
2022/07/15,01:50,0.568,0.792,0.514,0.962,0.676,0.335,0.570,0.543,��,2.3,�L
2022/07/15,02:00,0.567,0.793,0.513,0.961,0.676,0.335,0.570,0.542,��쓌,3.1,�L
2022/07/15,02:10,0.568,0.791,0.515,0.961,0.677,0.333,0.571,0.542,��쓌,3.2,�L
2022/07/15,02:20,0.568,0.794,0.514,0.962,0.677,0.336,0.571,0.543,��,3.2,�L
2022/07/15,02:30,0.568,0.793,0.514,0.960,0.678,0.333,0.570,0.541,��,3.2,�L
2022/07/15,02:40,0.569,0.793,0.515,0.962,0.676,0.334,0.571,0.544,��,3.8,�L
2022/07/15,02:50,0.566,0.791,0.514,0.958,0.678,0.335,0.569,0.541,��쓌,3.4,�L
2022/07/15,03:00,0.567,0.793,0.516,0.959,0.678,0.333,0.572,0.543,��쓌,5.0,�L
2022/07/15,03:10,0.568,0.792,0.514,0.959,0.677,0.333,0.568,0.543,��쓌,4.0,�L
2022/07/15,03:20,0.567,0.793,0.514,0.959,0.679,0.334,0.571,0.542,��,3.8,�L
2022/07/15,03:30,0.568,0.793,0.515,0.961,0.678,0.332,0.570,0.541,��,3.2,�L
2022/07/15,03:40,0.568,0.794,0.514,0.960,0.678,0.334,0.570,0.542,��,3.6,�L
2022/07/15,03:50,0.567,0.796,0.514,0.962,0.677,0.333,0.571,0.544,��,2.6,��
2022/07/15,04:00,0.568,0.795,0.513,0.961,0.679,0.335,0.571,0.542,��,3.1,��
2022/07/15,04:10,0.569,0.795,0.514,0.964,0.678,0.333,0.572,0.544,��,2.8,�L
2022/07/15,04:20,0.567,0.796,0.514,0.963,0.680,0.332,0.571,0.542,��,3.7,�L
2022/07/15,04:30,0.567,0.798,0.514,0.961,0.680,0.333,0.571,0.540,��,3.1,�L
2022/07/15,04:40,0.570,0.798,0.515,0.965,0.680,0.332,0.572,0.542,��,2.9,�L
2022/07/15,04:50,0.567,0.797,0.515,0.965,0.678,0.334,0.571,0.542,��,2.6,��
2022/07/15,05:00,0.568,0.798,0.515,0.963,0.680,0.334,0.572,0.542,��,3.1,��
2022/07/15,05:10,0.569,0.796,0.515,0.963,0.680,0.333,0.572,0.542,��,3.7,��
2022/07/15,05:20,0.569,0.800,0.515,0.963,0.680,0.332,0.571,0.542,��쓌,3.1,��
2022/07/15,05:30,0.570,0.797,0.515,0.966,0.680,0.334,0.572,0.543,��쓌,2.8,��
2022/07/15,05:40,0.568,0.799,0.516,0.964,0.680,0.334,0.571,0.546,��쓌,2.9,�L
2022/07/15,05:50,0.569,0.800,0.514,0.968,0.680,0.332,0.572,0.543,��,4.0,�L
2022/07/15,06:00,0.570,0.801,0.516,0.966,0.680,0.333,0.573,0.545,��쐼,3.8,�L
2022/07/15,06:10,0.570,0.802,0.516,0.967,0.683,0.334,0.573,0.544,��쐼,4.1,�L
2022/07/15,06:20,0.570,0.801,0.514,0.968,0.682,0.333,0.572,0.543,��쐼,4.0,��
2022/07/15,06:30,0.569,0.801,0.516,0.966,0.682,0.334,0.573,0.543,��,3.9,��
2022/07/15,06:40,0.570,0.801,0.517,0.966,0.683,0.333,0.572,0.543,��,4.0,��
2022/07/15,06:50,0.570,0.802,0.517,0.968,0.683,0.334,0.572,0.543,��,3.9,��
2022/07/15,07:00,0.569,0.805,0.519,0.966,0.683,0.334,0.572,0.545,��쐼,4.5,��
2022/07/15,07:10,0.572,0.805,0.515,0.967,0.684,0.334,0.573,0.542,��쐼,4.4,��
2022/07/15,07:20,0.571,0.805,0.517,0.967,0.685,0.334,0.573,0.544,��,4.8,��
2022/07/15,07:30,0.572,0.806,0.516,0.968,0.686,0.333,0.574,0.544,��,4.4,��
2022/07/15,07:40,0.572,0.805,0.516,0.968,0.685,0.333,0.571,0.543,��,3.8,��
2022/07/15,07:50,0.572,0.803,0.517,0.967,0.685,0.334,0.573,0.544,��쓌,3.1,��
2022/07/15,08:00,0.571,0.803,0.519,0.968,0.685,0.334,0.573,0.543,��쓌,2.0,��
2022/07/15,08:10,0.571,0.803,0.518,0.969,0.685,0.333,0.573,0.544,�쓌,2.0,��
2022/07/15,08:20,0.571,0.801,0.519,0.970,0.685,0.333,0.573,0.544,�쓌,2.3,��
2022/07/15,08:30,0.573,0.800,0.517,0.970,0.684,0.333,0.574,0.542,��쓌,2.3,��
2022/07/15,08:40,0.571,0.802,0.515,0.970,0.683,0.333,0.573,0.543,��,1.4,�L
2022/07/15,08:50,0.573,0.802,0.518,0.968,0.685,0.333,0.574,0.544,��쓌,2.3,�L
2022/07/15,09:00,0.571,0.800,0.517,0.970,0.683,0.334,0.573,0.543,��쓌,2.2,�L
2022/07/15,09:10,0.574,0.803,0.517,0.971,0.684,0.334,0.573,0.544,��쓌,1.7,�L
2022/07/15,09:20,0.573,0.804,0.515,0.969,0.686,0.334,0.574,0.544,���쓌,1.2,��
2022/07/15,09:30,0.574,0.804,0.517,0.972,0.684,0.335,0.573,0.544,�쓌,2.3,��
2022/07/15,09:40,0.573,0.804,0.516,0.971,0.686,0.334,0.574,0.544,�쓌,2.3,��
2022/07/15,09:50,0.574,0.805,0.516,0.971,0.687,0.334,0.574,0.544,�쓌,2.3,��
2022/07/15,10:00,0.573,0.805,0.517,0.972,0.687,0.333,0.574,0.545,���쓌,2.6,��
2022/07/15,10:10,0.575,0.807,0.517,0.971,0.687,0.333,0.575,0.545,�쓌,2.2,��
2022/07/15,10:20,0.575,0.807,0.518,0.969,0.687,0.335,0.574,0.545,���쓌,3.2,��
2022/07/15,10:30,0.573,0.807,0.520,0.969,0.687,0.335,0.576,0.545,���쓌,2.6,��
2022/07/15,10:40,0.576,0.806,0.518,0.970,0.689,0.336,0.576,0.545,�쓌,3.2,��
2022/07/15,10:50,0.575,0.807,0.519,0.971,0.688,0.336,0.575,0.545,���쓌,2.6,��
2022/07/15,11:00,0.575,0.808,0.520,0.969,0.690,0.335,0.575,0.546,�쓌,2.5,��
2022/07/15,11:10,0.573,0.805,0.519,0.970,0.691,0.336,0.576,0.545,���쓌,2.0,��
2022/07/15,11:20,0.575,0.805,0.520,0.971,0.690,0.335,0.576,0.545,���쓌,2.3,��
2022/07/15,11:30,0.576,0.807,0.518,0.970,0.691,0.335,0.576,0.547,�쓌,2.0,�L
2022/07/15,11:40,0.576,0.808,0.519,0.972,0.689,0.335,0.577,0.544,�쓌,2.0,�L
2022/07/15,11:50,0.574,0.807,0.520,0.971,0.691,0.333,0.578,0.545,���쓌,2.6,��
2022/07/15,12:00,0.576,0.807,0.520,0.972,0.690,0.336,0.577,0.546,���쓌,2.2,��
2022/07/15,12:10,0.575,0.810,0.522,0.971,0.687,0.336,0.576,0.545,���쓌,2.8,��
2022/07/15,12:20,0.576,0.810,0.521,0.972,0.687,0.336,0.578,0.547,�쓌,2.9,��
2022/07/15,12:30,0.576,0.810,0.520,0.968,0.691,0.335,0.575,0.546,�쓌,3.2,��
2022/07/15,12:40,0.576,0.812,0.521,0.973,0.691,0.335,0.575,0.547,�쓌,2.5,��
2022/07/15,12:50,0.577,0.812,0.522,0.972,0.690,0.335,0.578,0.545,�쓌,2.0,�L
2022/07/15,13:00,0.575,0.812,0.522,0.973,0.690,0.337,0.578,0.546,���쓌,2.2,��
2022/07/15,13:10,0.576,0.809,0.522,0.975,0.690,0.336,0.578,0.548,�쓌,2.6,��
2022/07/15,13:20,0.577,0.809,0.521,0.972,0.691,0.335,0.577,0.547,�쓌,2.2,��
2022/07/15,13:30,0.577,0.811,0.521,0.972,0.692,0.336,0.577,0.546,���쓌,1.5,��
2022/07/15,13:40,0.577,0.809,0.521,0.973,0.692,0.337,0.578,0.547,���쓌,2.3,��
2022/07/15,13:50,0.578,0.809,0.523,0.972,0.693,0.336,0.577,0.548,���쓌,2.3,��
2022/07/15,14:00,0.576,0.809,0.521,0.972,0.693,0.334,0.577,0.547,��,2.8,��
2022/07/15,14:10,0.578,0.810,0.523,0.974,0.693,0.336,0.579,0.547,��,2.2,�L
2022/07/15,14:20,0.575,0.808,0.522,0.974,0.693,0.337,0.578,0.547,��,2.8,�L
2022/07/15,14:30,0.576,0.810,0.522,0.972,0.691,0.335,0.578,0.546,���k��,3.0,�L
2022/07/15,14:40,0.578,0.812,0.523,0.974,0.691,0.335,0.579,0.547,���k��,2.0,�L
2022/07/15,14:50,0.577,0.809,0.522,0.974,0.693,0.337,0.577,0.546,��,2.0,�L
2022/07/15,15:00,0.573,0.809,0.522,0.974,0.690,0.335,0.575,0.543,���쓌,2.3,�L
2022/07/15,15:10,0.572,0.806,0.517,0.973,0.686,0.334,0.575,0.542,���k��,1.7,�L
2022/07/15,15:20,0.571,0.805,0.518,0.973,0.685,0.336,0.574,0.542,�k��,1.4,�L
2022/07/15,15:30,0.570,0.802,0.518,0.972,0.686,0.334,0.573,0.545,�k�k��,2.2,�L
2022/07/15,15:40,0.570,0.804,0.517,0.973,0.685,0.333,0.573,0.544,�k�k��,2.8,�L
2022/07/15,15:50,0.571,0.801,0.518,0.974,0.687,0.333,0.575,0.544,�k��,4.1,�L
2022/07/15,16:00,0.570,0.804,0.517,0.974,0.685,0.334,0.572,0.542,�k��,3.9,�L
2022/07/15,16:10,0.569,0.803,0.516,0.974,0.684,0.333,0.573,0.544,�k��,3.4,�L
2022/07/15,16:20,0.570,0.803,0.518,0.971,0.684,0.333,0.573,0.545,�k�k��,3.8,�L
2022/07/15,16:30,0.570,0.802,0.515,0.973,0.684,0.335,0.571,0.544,�k�k��,4.1,�L
2022/07/15,16:40,0.568,0.799,0.515,0.971,0.684,0.334,0.570,0.544,�k,4.4,�L
2022/07/15,16:50,0.566,0.800,0.515,0.970,0.681,0.333,0.570,0.543,�k�k��,4.0,�L
2022/07/15,17:00,0.567,0.800,0.516,0.969,0.680,0.333,0.571,0.541,�k,4.1,�L
2022/07/15,17:10,0.568,0.798,0.512,0.967,0.682,0.332,0.571,0.544,�k�k��,4.9,�L
2022/07/15,17:20,0.568,0.800,0.513,0.968,0.681,0.332,0.573,0.542,�k�k��,6.1,�L
2022/07/15,17:30,0.570,0.799,0.514,0.967,0.681,0.331,0.571,0.543,�k�k��,6.3,��
2022/07/15,17:40,0.570,0.799,0.514,0.967,0.680,0.334,0.572,0.542,�k,6.2,�L
2022/07/15,17:50,0.569,0.799,0.515,0.967,0.680,0.333,0.573,0.543,�k�k��,6.1,�L
2022/07/15,18:00,0.568,0.797,0.515,0.968,0.682,0.333,0.574,0.543,�k�k��,5.3,�L
2022/07/15,18:10,0.572,0.800,0.513,0.969,0.682,0.333,0.573,0.545,�k,5.9,�L
2022/07/15,18:20,0.568,0.801,0.515,0.970,0.681,0.334,0.574,0.543,�k,6.2,�L
2022/07/15,18:30,0.571,0.800,0.516,0.969,0.683,0.333,0.572,0.544,�k,5.6,�L
2022/07/15,18:40,0.571,0.801,0.516,0.968,0.682,0.332,0.573,0.543,�k,4.5,�L
2022/07/15,18:50,0.571,0.801,0.516,0.969,0.684,0.333,0.574,0.544,�k,4.8,�L
2022/07/15,19:00,0.571,0.800,0.516,0.970,0.684,0.333,0.575,0.545,�k,4.8,�L
2022/07/15,19:10,0.568,0.799,0.516,0.969,0.682,0.334,0.574,0.544,�k,5.4,�L
2022/07/15,19:20,0.569,0.799,0.516,0.968,0.680,0.332,0.574,0.544,�k,3.7,�L
2022/07/15,19:30,0.568,0.794,0.514,0.963,0.677,0.332,0.574,0.544,�k,4.2,�L
2022/07/15,19:40,0.568,0.789,0.512,0.960,0.677,0.334,0.574,0.542,�k,4.4,�L
2022/07/15,19:50,0.570,0.792,0.512,0.960,0.676,0.333,0.572,0.543,�k�k��,4.6,�L
2022/07/15,20:00,0.569,0.793,0.513,0.960,0.676,0.335,0.573,0.544,�k,4.4,�L
2022/07/15,20:10,0.569,0.794,0.513,0.962,0.678,0.332,0.575,0.543,�k�k��,3.4,�L
2022/07/15,20:20,0.569,0.793,0.513,0.962,0.677,0.334,0.572,0.545,�k�k��,3.3,�L
2022/07/15,20:30,0.569,0.795,0.513,0.963,0.679,0.335,0.574,0.544,�k�k��,3.0,��
2022/07/15,20:40,0.569,0.796,0.513,0.963,0.679,0.335,0.572,0.544,�k,2.6,��
2022/07/15,20:50,0.569,0.798,0.514,0.964,0.679,0.333,0.574,0.544,�k,2.6,�L
2022/07/15,21:00,0.570,0.798,0.515,0.963,0.679,0.334,0.572,0.542,�k,3.4,�L
2022/07/15,21:10,0.570,0.796,0.514,0.965,0.681,0.335,0.574,0.544,�k,2.6,�L
2022/07/15,21:20,0.570,0.797,0.514,0.965,0.680,0.335,0.572,0.542,�쓌,1.5,�L
2022/07/15,21:30,0.568,0.792,0.512,0.957,0.675,0.333,0.570,0.540,�k�k��,4.5,�L
2022/07/15,21:40,0.566,0.788,0.510,0.953,0.667,0.332,0.568,0.539,�k�k��,4.1,�L
2022/07/15,21:50,0.562,0.785,0.510,0.948,0.665,0.333,0.568,0.540,�k,3.3,�L
2022/07/15,22:00,0.558,0.780,0.507,0.942,0.658,0.332,0.565,0.537,�k�k��,1.1,�L
2022/07/15,22:10,0.561,0.775,0.507,0.934,0.651,0.331,0.562,0.536,�k,1.7,�L
2022/07/15,22:20,0.558,0.777,0.506,0.933,0.650,0.329,0.562,0.535,�k��,3.2,�L
2022/07/15,22:30,0.557,0.772,0.509,0.930,0.650,0.331,0.561,0.532,���k��,4.0,�L
2022/07/15,22:40,0.558,0.775,0.509,0.932,0.652,0.333,0.562,0.536,�k�k��,2.6,�L
2022/07/15,22:50,0.561,0.780,0.511,0.935,0.653,0.334,0.565,0.537,�k��,2.5,�L
2022/07/15,23:00,0.565,0.783,0.512,0.939,0.656,0.333,0.566,0.540,�k�k��,2.0,�L
2022/07/15,23:10,0.568,0.787,0.512,0.942,0.659,0.334,0.568,0.540,-,CALM,�L
2022/07/15,23:20,0.565,0.788,0.512,0.945,0.660,0.334,0.567,0.538,��쓌,0.6,�L
2022/07/15,23:30,0.568,0.788,0.512,0.945,0.661,0.333,0.568,0.540,�쓌,0.9,�L
2022/07/15,23:40,0.567,0.788,0.511,0.947,0.662,0.334,0.568,0.537,��,0.9,�L
2022/07/15,23:50,0.566,0.785,0.511,0.949,0.663,0.333,0.567,0.539,��쐼,0.6,�L
